Location: *
(49.0044°N, 9.5056°E)
Time: 08:14:02
(UTC+00:00)

SL-8 Rocket - Pass Details

Date: 22 September 2019
Orbit: 956 x 991 km, 82.9° (Epoch: 15 October)

Event Time Altitude Azimuth Distance (km) Brightness Sun altitude
Rises 18:51:28 0° 350° (N) 3,668 7.4 -15.4°
Reaches altitude 10° 18:53:59 10° 351° (N) 2,713 6.7 -15.8°
Maximum altitude 19:00:12 85° 80° (E) 970 3.9 -16.8°
Drops below altitude 10° 19:06:21 10° 171° (S) 2,681 6.0 -17.7°
Enters shadow 19:07:52 - 171° (S) 3,254 6.4 -18.0°
